User: anonymous
Location: Unspecified
(0.0000°N, 0.0000°E)
Time: 20:23:25
(UTC+02:00)
Language:

Cosmos 2251 - Orbit

View from above orbital plane
View from above orbital plane
View from above satellite
View from above satellite

Ground track
Ground track

The orbit data is extracted from the following two-line orbital elements,

1 22675U 93036A   14293.14676635  .00000177  00000-0  75000-4 0  3850
2 22675 074.0403 188.1233 0025058 186.0300 335.9883 14.32352278114996
Epoch (UTC): 20 October 2014 03:31:20
Eccentricity: 0.0025058
inclination: 74.0403°
perigee height: 766 km
apogee height: 802 km
right ascension of ascending node: 188.1233°
argument of perigee: 186.0300°
revolutions per day: 14.32352278
mean anomaly at epoch: 335.9883°
orbit number at epoch: 11499

The dashed part of the orbit path shows where the satellite is in the earth's shadow,  

DLR